Terminal Aerodrome Forecast
Issued by NWS Springfield, MO

Home | Current Version | Previous Version | Text Only | Print | Product List | Glossary On
Versions: 1 2 3 4 5 6 7 8 9 10 11 12 13 14 15 16 17
139
FTUS43 KSGF 061422 AAE
TAFSGF
TAF AMD
KSGF 061422Z 0614/0712 34008KT 6SM BR OVC008
     FM061500 34011G20KT P6SM BKN015
     FM061700 34011G19KT P6SM SCT110
     FM062300 34007KT P6SM SCT200
     FM070900 04004KT P6SM SCT140
     FM071100 07004KT P6SM BKN110=

USA.gov is the U.S. government's official web portal to all federal, state and local government web resources and services.